sat.trackr.live / text

‹ back to catalog

LEMUR-2-STELLA

NORAD 60533 · 2024-149BT

PAYLOAD ACTIVE UNKNOWN

§ Identity

Operator
Country
US
Launch date
2024-08-16
Launch site
AFWTR
Launch vehicle
Mass (kg)
RCS (m²)

Purposes: earth_obs

External: N2YO · Heavens-Above · Gunter

§ Orbital elements

Epoch: 2026-09-19T11:24:02.146176Z

Period
95.14 min
Inclination
97.6682°
Eccentricity
0.0001720
Mean motion
15.13563815 rev/d
Perigee alt
524.2 km
Apogee alt
526.5 km
Semi-major
6,903.5 km
B*
4.0315e-4
RAAN
345.4386°
Arg perigee
95.4235°
Mean anomaly
264.7192°
Rev number
11,475

§ Raw data

LEMUR-2-STELLA1 60533U 24149BT  26262.47502484  .00007165  00000+0  40315-3 0  99932 60533  97.6682 345.4386 0001720  95.4235 264.7192 15.13563815114755

JSON: /api/v1/satellites/60533 · /tle

For live sub-satellite position, see the globe view (requires WebGL).

§ Visibility from observer

Set your observer location to see the next 7 days of passes ≥ 10°. The values pass through the URL so the page stays shareable.

No JS? Fill the form by hand. The geolocation button needs JavaScript.

§ Radio — SatNOGS DB

ModeDescriptionDownlinkUplink
FM Mode U - Transmitter 402.790 MHz

1 transmitter · refreshed weekly from db.satnogs.org